Lexington Weather

Lexington, Massachusetts, USA

34°F
10/30/2020 6:57am 
  • Lexington Conditions: Light snow, Mist, Overcast
  • Temperature: 34.0°F / 1.1°CColder 1.2°F than last hour.
  • Dew Point: 33.3°FDecreased 1.2°Fsince last hour.
  • Relative Humidity: 97
  • Wind: Wind from NE NE 2 mph, 10-min avg: 2 mph, gust: 9 mph
  • Barometer: 29.77 in Steady
  • Visibility: 4 miles
  • Rain Today: 0.09 in
  •   
Southeast Middlesex County - Winter Weather Advisory
 - SEE ALL NEARBY ALERTS -

Regional Weather Roundup
for Boston / Norton, MA

        
000
ASUS41 KBOX 240704
RWRBOX

REGIONAL WEATHER ROUNDUP
NATIONAL WEATHER SERVICE BOSTON/NORTON MA
300 AM EDT SAT OCT 24 2020

NOTE:  "FAIR" INDICATES FEW OR NO CLOUDS BELOW 12,000 FEET WITH NO 
SIGNIFICANT WEATHER AND/OR OBSTRUCTIONS TO VISIBILITY.

MAZALL-240800-
EASTERN MASSACHUSETTS
  
CITY           SKY/WX    TMP DP  RH WIND       PRES   REMARKS
BOSTON         CLOUDY    56  52  86 S8        30.03F                  
BEVERLY        CLOUDY    56  54  93 S3        30.02F FOG              
LAWRENCE       CLOUDY    57  54  89 S6        30.03F                  
BEDFORD        CLOUDY    56  55  97 S5        30.01F                  
BLUE HILL        N/A     53  52  96 SE9       30.02F                  
NORWOOD        CLOUDY    57  53  86 S6        30.02F                  
MARSHFIELD     CLOUDY    55  55 100 CALM      30.02F                  
PLYMOUTH       CLOUDY    55  53  93 CALM      30.03F                  
TAUNTON        CLOUDY    55  53  93 CALM      30.03F                  
NEW BEDFORD    CLOUDY    57  55  93 CALM      30.02F                  
$$

MAZALL-240800-
CAPE COD AND THE ISLANDS
  
CITY           SKY/WX    TMP DP  RH WIND       PRES   REMARKS
FALMOUTH       CLOUDY    57  54  88 CALM      30.03F                  
HYANNIS        CLOUDY    58  55  90 CALM      30.01F                  
CHATHAM        CLOUDY    59  56  89 CALM      30.04F                  
PROVINCETOWN   CLOUDY    57  55  93 CALM      30.03F                  
NANTUCKET      CLOUDY   N/A N/A N/A CALM      30.03F                  
MARTHAS VNYRD  CLOUDY    57  54  89 NE3       30.03F                  
$$
 
MAZALL-240800-
CENTRAL AND WESTERN MASSACHUSETTS
  
CITY           SKY/WX    TMP DP  RH WIND       PRES   REMARKS
WORCESTER      FOG       55  53  93 SW5       30.00F VSB 1/2          
FITCHBURG      CLOUDY    53  53 100 SE6       30.01F FOG              
ORANGE         CLOUDY    60  57  89 S5        30.00F                  
SPRINGFIELD    CLOUDY    60  56  89 S5        29.98F                  
WESTFIELD      CLOUDY    60  59  96 SE5       29.98F                  
NORTH ADAMS    CLOUDY    64  55  72 VRB3      29.95F                  
PITTSFIELD     CLOUDY    61  56  83 S8        29.96F                  
$$
 
RIZALL-240800-
RHODE ISLAND
  
CITY           SKY/WX    TMP DP  RH WIND       PRES   REMARKS
PROVIDENCE     CLOUDY    57  54  89 CALM      30.03F                  
NEWPORT        CLOUDY    57  54  89 CALM      30.02F                  
BLOCK ISLAND   CLOUDY    57  54  89 CALM      30.03F                  
SMITHFIELD     CLOUDY    54  54 100 CALM        N/A                   
WESTERLY       CLOUDY    54  52  93 CALM      30.03F                  
$$
 
CTZALL-240800-
CONNECTICUT
  
CITY           SKY/WX    TMP DP  RH WIND       PRES   REMARKS
BRADLEY INTL   CLOUDY    60  57  89 S7        29.98F                  
HARTFORD       CLOUDY    61  57  87 S6        29.99F                  
BRIDGEPORT     CLOUDY    62  61  96 S5        30.00F                  
DANBURY        CLOUDY    60  59  96 CALM        N/A                   
GROTON         CLOUDY    58  55  90 E6        30.01F                  
NEW HAVEN      CLOUDY    63  61  93 S5        30.00F FOG              
CHESTER        CLOUDY    59  59 100 SE5       30.01F FOG              
MERIDEN        CLOUDY    60  58  92 S7        29.99F                  
WILLIMANTIC    CLOUDY    58  55  90 SE3       30.00F                  
OXFORD         CLOUDY    59  59 100 SW5       30.01F FOG              
$$

MEZ002-015-021-024-NHZ003-005-008-011-012-014-VTZ005-008-240800-
NORTHERN NEW ENGLAND
  
CITY           SKY/WX    TMP DP  RH WIND       PRES   REMARKS
PORTLAND ME    CLOUDY    55  54  96 S5        30.03F                  
BANGOR ME      CLOUDY    54  51  90 S12       30.02F                  
CONCORD NH     CLOUDY    54  53  97 VRB6      30.00F FOG              
MANCHESTER NH  CLOUDY    57  53  86 SE10      29.99F FOG              
NASHUA NH      CLOUDY    55  55 100 SE7       30.01F                  
PORTSMOUTH NH  DRZL/FOG  55  55  99 S6        30.00  VSB 1            
JAFFREY NH     MOCLDY    58  54  86 S7        30.00F                  
KEENE NH       CLOUDY    61  57  87 S7        29.98F                  
BURLINGTON VT  PTCLDY    64  55  72 S26G33    29.83F                  
MT. WASHINGTON FOG       41  41 100 SW33G53     N/A  VSB 0   WCI  29  
$$

NYZ052-076-240800-
EASTERN NEW YORK
  
CITY           SKY/WX    TMP DP  RH WIND       PRES   REMARKS
ALBANY         CLOUDY    60  58  92 S12       29.93F                  
NEW YORK CITY  CLOUDY    64  58  80 S6        29.99F                  
$$
 
ANZALL-240800-
MARINE OBSERVATIONS
  
STATION/POSITION TIME  TEMP    WIND        PRES    VSBY  WAVE
                       AIR SEA DIR/SP/G                  HT/PER
                 (UTC) (F)     (DEG/KT/KT) (MB)    (MI)  (FT/S)
BOSTON BUOY      0650   57 58  180/  8/  8 1015.8F         4/12
BUZZARDS BAY     0600          250/  2/  3 1018.4F
NANTUCKET SOUND  0650      62   40/  2/  2   N/A           1/ 6
MASS BAY-STELLWA 0604   57 58  170/  8/ 10 1016.6F  1 7/8  4/11
ISLE OF SHOALS   0600   56     180/ 11/ 13 1016.6F
S OF BLOCK IS    0626      63                N/A           6/12
$$

......................KEY.........................
  SKY/WX - SKY CONDITION/PRESENT WEATHER
  TMP    - TEMPERATURE IN FAHRENHEIT
  DWPT   - DEWPOINT IN FAHRENHEIT
  RH     - RELATIVE HUMIDITY IN PERCENT
  WIND   - DIRECTION AND SPEED IN MPH
  PRES   - MEAN SEA LEVEL PRESSURE IN INCHES OF HG
  WCI    - WIND CHILL INDEX
  VSB    - VISIBILITY IN MILES
  HX     - HEAT INDEX
  TC     - TEMPERATURE IN CELSIUS
  VRB    - VARIABLE WIND DIRECTION
  N/A    - NOT AVAILABLE
  
      

Other recent Regional Weather Roundups

Fri Oct 30, 6:04am

Fri Oct 30, 5:04am

Fri Oct 30, 4:04am

Fri Oct 30, 3:04am

Fri Oct 30, 2:04am

Fri Oct 30, 1:04am

Fri Oct 30, 12:04am

Thu Oct 29, 11:04pm

Thu Oct 29, 10:04pm

Thu Oct 29, 9:04pm

Thu Oct 29, 8:04pm

Thu Oct 29, 7:04pm

Thu Oct 29, 6:04pm

Thu Oct 29, 5:05pm

Thu Oct 29, 4:05pm

Thu Oct 29, 3:05pm

Thu Oct 29, 2:04pm

Thu Oct 29, 1:04pm

Thu Oct 29, 12:04pm

Thu Oct 29, 11:04am

Thu Oct 29, 10:04am

Thu Oct 29, 9:04am

Thu Oct 29, 8:04am

Thu Oct 29, 7:04am

Thu Oct 29, 6:04am

Thu Oct 29, 5:04am

Thu Oct 29, 4:04am

Thu Oct 29, 3:04am

Thu Oct 29, 2:04am

Thu Oct 29, 1:05am

Thu Oct 29, 12:04am

Wed Oct 28, 11:05pm

Wed Oct 28, 10:04pm

Wed Oct 28, 9:04pm

Wed Oct 28, 8:04pm

Wed Oct 28, 7:05pm

Wed Oct 28, 6:04pm

Wed Oct 28, 5:05pm

Wed Oct 28, 4:04pm

Wed Oct 28, 3:04pm

Wed Oct 28, 2:04pm

Wed Oct 28, 1:05pm

Wed Oct 28, 12:05pm

Wed Oct 28, 11:05am

Wed Oct 28, 10:04am

Wed Oct 28, 9:04am

Wed Oct 28, 8:04am

Wed Oct 28, 7:04am

Wed Oct 28, 6:04am

Wed Oct 28, 5:05am

Wed Oct 28, 4:04am

Wed Oct 28, 3:04am

Wed Oct 28, 2:04am

Wed Oct 28, 1:05am

Wed Oct 28, 12:04am

Tue Oct 27, 11:04pm

Tue Oct 27, 10:04pm

Tue Oct 27, 9:05pm

Tue Oct 27, 8:04pm

Tue Oct 27, 7:04pm

Tue Oct 27, 6:04pm

Tue Oct 27, 5:04pm

Tue Oct 27, 4:05pm

Tue Oct 27, 3:04pm

Tue Oct 27, 2:04pm

Tue Oct 27, 1:04pm

Tue Oct 27, 12:04pm

Tue Oct 27, 11:04am

Tue Oct 27, 10:04am

Tue Oct 27, 9:04am

Tue Oct 27, 8:04am

Tue Oct 27, 7:04am

Tue Oct 27, 6:04am

Tue Oct 27, 5:04am

Tue Oct 27, 4:04am

Tue Oct 27, 3:04am

Tue Oct 27, 2:05am

Tue Oct 27, 1:04am

Tue Oct 27, 12:04am

Mon Oct 26, 11:05pm

Mon Oct 26, 10:04pm

Mon Oct 26, 9:04pm

Mon Oct 26, 8:04pm

Mon Oct 26, 7:04pm

Mon Oct 26, 6:04pm

Mon Oct 26, 5:04pm

Mon Oct 26, 4:05pm

Mon Oct 26, 2:04pm

Mon Oct 26, 1:04pm

Mon Oct 26, 12:04pm

Mon Oct 26, 11:05am

Mon Oct 26, 10:04am

Mon Oct 26, 9:04am

Mon Oct 26, 8:04am

Mon Oct 26, 7:04am

Mon Oct 26, 6:04am

Mon Oct 26, 5:04am

Mon Oct 26, 4:04am

Mon Oct 26, 3:04am

Mon Oct 26, 2:04am

Mon Oct 26, 1:04am

Mon Oct 26, 12:04am

Sun Oct 25, 11:05pm

Sun Oct 25, 10:04pm

Sun Oct 25, 9:04pm

Sun Oct 25, 8:04pm

Sun Oct 25, 7:04pm

Sun Oct 25, 6:04pm

Sun Oct 25, 5:04pm

Sun Oct 25, 4:05pm

Sun Oct 25, 3:04pm

Sun Oct 25, 2:04pm

Sun Oct 25, 1:04pm

Sun Oct 25, 12:04pm

Sun Oct 25, 11:04am

Sun Oct 25, 10:04am

Sun Oct 25, 9:04am

Sun Oct 25, 8:04am

Sun Oct 25, 7:04am

Sun Oct 25, 6:04am

Sun Oct 25, 5:04am

Sun Oct 25, 4:04am

Sun Oct 25, 3:04am

Sun Oct 25, 2:04am

Sun Oct 25, 1:05am

Sun Oct 25, 12:04am

Sat Oct 24, 11:04pm

Sat Oct 24, 10:04pm

Sat Oct 24, 9:04pm

Sat Oct 24, 8:04pm

Sat Oct 24, 7:04pm

Sat Oct 24, 6:04pm

Sat Oct 24, 5:05pm

Sat Oct 24, 4:04pm

Sat Oct 24, 3:04pm

Sat Oct 24, 2:04pm

Sat Oct 24, 1:05pm

Sat Oct 24, 12:04pm

Sat Oct 24, 11:05am

Sat Oct 24, 10:05am

Sat Oct 24, 9:04am

Sat Oct 24, 8:04am

Sat Oct 24, 7:04am

Sat Oct 24, 6:04am

Sat Oct 24, 5:04am

Sat Oct 24, 4:04am

Sat Oct 24, 2:04am

Sat Oct 24, 1:05am

Sat Oct 24, 12:04am

Fri Oct 23, 11:04pm

Fri Oct 23, 10:04pm

Fri Oct 23, 9:04pm

Fri Oct 23, 8:05pm

Fri Oct 23, 7:04pm

Fri Oct 23, 6:04pm

Fri Oct 23, 5:05pm

Fri Oct 23, 4:04pm

Fri Oct 23, 3:04pm

Fri Oct 23, 2:05pm

Fri Oct 23, 1:04pm

Fri Oct 23, 12:04pm

Fri Oct 23, 11:04am

Fri Oct 23, 10:04am

Fri Oct 23, 9:04am

Fri Oct 23, 8:04am

Fri Oct 23, 7:04am

Meta data:

ID: b47082e1-91f4-4e3d-9772-e0ebb29c9c97
Link: https://api.weather.gov/products/b47082e1-91f4-4e3d-9772-e0ebb29c9c97